Weather History for La Crosse, WI

Change the Weather History Date:

Saturday, March 9, 2013

  Actual Average Record
Temperature  
Mean Temperature 35 °F 31 °F  
Max Temperature 38 °F 40 °F 67 °F (1878)
Min Temperature 32 °F 22 °F -8 °F (1995)
Degree Days  
Heating Degree Days 30 34  
Month to date heating degree days 378 319  
Since 1 July heating degree days 5707 5828  
Cooling Degree Days 0 0  
Month to date cooling degree days 0 0  
Year to date cooling degree days 0 0  
Moisture  
Dew Point 33 °F    
Average Humidity 86    
Maximum Humidity 100    
Minimum Humidity 72    
Precipitation  
Precipitation 0.28 in 0.06 in 1.58 in (1992)
Month to date precipitation 0.73 0.51  
Year to date precipitation 3.13 2.68  
Snow  
Snow T in 0.30 in 12.10 in (1909)
Month to date snowfall 7.8 2.8  
Since 1 July snowfall 47.8 37.3  
Snow Depth 9.00 in    
Sea Level Pressure  
Sea Level Pressure 29.90 in    
Wind  
Wind Speed 8 mph (SSE)    
Max Wind Speed 20 mph    
Max Gust Speed 24 mph    
Visibility 6 miles    
Events Rain    
T = Trace of Precipitation, MM = Missing Value Source: NWS Daily Summary

Daily Weather History Graph

Daily Weather History Graph

Search for Another Location

Airport:

Trip Planner

Search our weather history database for the weather conditions in past years. The results will help you decide how hot, cold, wet, or windy it might be!

Date:

Astronomy

Mar. 09, 2013 Rise Set
Actual Time 6:27 AM CST 6:04 PM CST
Civil Twilight 5:58 AM CST 6:32 PM CST
Nautical Twilight 5:25 AM CST 7:06 PM CST
Astronomical Twilight 4:51 AM CST 7:39 PM CST
Moon 4:55 AM CST (3/9) 4:03 PM CST (3/9)
Length of Visible Light 12h 34m
Length of Day
11h 36m
Waning Crescent, 5% of the Moon is Illuminated
Mar 9
Waning Crescent
Mar 11
New
Mar 19
First Quarter
Mar 27
Full
Apr 2
Last Quarter

Hourly Weather History & Observations

Time (CST) Temp. Windchill Dew Point Humidity Pressure Visibility Wind Dir Wind Speed Gust Speed Precip Events Conditions
12:53 AM 33.1 °F 24.4 °F 26.1 °F 75% 30.19 in 9.0 mi SSE 11.5 mph - N/A   Clear
1:53 AM 34.0 °F 26.0 °F 27.0 °F 75% 30.16 in 8.0 mi SSE 10.4 mph - N/A   Overcast
2:53 AM 34.0 °F 28.8 °F 28.0 °F 79% 30.13 in 8.0 mi SSE 5.8 mph - 0.00 in   Overcast
3:53 AM 34.0 °F - 28.0 °F 79% 30.14 in 7.0 mi Calm Calm - N/A   Overcast
4:53 AM 34.0 °F 29.8 °F 28.0 °F 79% 30.11 in 8.0 mi ESE 4.6 mph - N/A   Overcast
6:53 AM 36.0 °F 28.0 °F 28.9 °F 76% 30.06 in 6.0 mi SSE 11.5 mph - 0.01 in Rain Light Rain
7:07 AM 35.6 °F 28.0 °F 28.4 °F 75% 30.02 in 6.0 mi SSE 10.4 mph - 0.01 in Rain Light Rain
7:53 AM 36.0 °F 30.3 °F 30.9 °F 82% 30.03 in 6.0 mi SE 6.9 mph - 0.05 in Rain Light Rain
8:53 AM 36.0 °F 30.3 °F 32.0 °F 86% 30.02 in 6.0 mi SE 6.9 mph - 0.00 in   Overcast
9:53 AM 37.0 °F 28.5 °F 32.0 °F 82% 29.97 in 8.0 mi SSE 13.8 mph 21.9 mph N/A   Overcast
10:53 AM 37.0 °F 28.5 °F 32.0 °F 82% 29.95 in 6.0 mi SSE 13.8 mph - N/A   Haze
11:53 AM 37.9 °F 29.2 °F 33.1 °F 83% 29.92 in 8.0 mi SSE 15.0 mph - N/A   Overcast
12:17 PM 37.4 °F 28.9 °F 33.8 °F 87% 29.87 in 8.0 mi SSE 13.8 mph - N/A   Overcast
12:53 PM 37.9 °F 29.6 °F 33.1 °F 83% 29.89 in 9.0 mi SSE 13.8 mph - N/A   Overcast
1:53 PM 37.0 °F 28.5 °F 34.0 °F 89% 29.86 in 3.0 mi SSE 13.8 mph - 0.01 in   Overcast
2:01 PM 37.4 °F 28.9 °F 33.8 °F 87% 29.82 in 2.5 mi SSE 13.8 mph - N/A   Overcast
2:34 PM 37.4 °F 29.3 °F 35.6 °F 93% 29.80 in 4.0 mi SSE 12.7 mph - 0.00 in Rain Light Rain
2:42 PM 37.4 °F 29.3 °F 33.8 °F 87% 29.79 in 4.0 mi SSE 12.7 mph - 0.00 in Rain Light Rain
2:53 PM 37.0 °F 29.3 °F 34.0 °F 89% 29.82 in 5.0 mi SSE 11.5 mph - 0.01 in Rain Light Rain
3:53 PM 37.9 °F 31.5 °F 35.1 °F 89% 29.80 in 7.0 mi SSE 9.2 mph - 0.06 in Rain Light Rain
4:53 PM 37.0 °F 34.5 °F 36.0 °F 96% 29.81 in 6.0 mi SW 3.5 mph - 0.02 in Rain Light Rain
5:53 PM 37.0 °F 31.6 °F 36.0 °F 96% 29.80 in 4.0 mi SE 6.9 mph - 0.03 in Rain Light Rain
6:53 PM 36.0 °F 32.1 °F 36.0 °F 100% 29.79 in 4.0 mi SSE 4.6 mph - 0.05 in Rain Light Rain
7:19 PM 37.4 °F - 37.4 °F 100% 29.76 in 5.0 mi Calm Calm - 0.01 in Rain Light Rain
7:53 PM 37.0 °F 32.4 °F 36.0 °F 96% 29.79 in 5.0 mi SSE 5.8 mph - 0.01 in Rain Light Rain
8:53 PM 37.0 °F 32.4 °F 36.0 °F 96% 29.78 in 2.5 mi SE 5.8 mph - 0.01 in   Overcast
9:31 PM 37.4 °F 32.8 °F 35.6 °F 93% 29.77 in 4.0 mi South 5.8 mph - 0.00 in Rain Light Rain
9:53 PM 37.0 °F 31.6 °F 36.0 °F 96% 29.79 in 6.0 mi SSE 6.9 mph - 0.00 in   Overcast
10:53 PM 37.0 °F 31.6 °F 36.0 °F 96% 29.79 in 4.0 mi South 6.9 mph - 0.00 in Rain Light Rain
11:11 PM 37.4 °F 32.8 °F 35.6 °F 93% 29.76 in 2.5 mi South 5.8 mph - 0.01 in   Overcast
11:40 PM 37.4 °F 33.8 °F 35.6 °F 93% 29.76 in 1.8 mi South 4.6 mph - 0.01 in   Overcast
11:53 PM 37.0 °F 34.5 °F 36.0 °F 96% 29.79 in 1.8 mi South 3.5 mph - 0.01 in Rain Light Rain